weather.gov     
National Weather Service

Regional Weather Roundup
NWS Homepage
This page is being discontinued on March 12, 2014.
The same data is available at this site. Please update your bookmarks.
Thank you, and we apologize for the inconvenience.
Please send an email to SR-SRH.Webmaster@noaa.gov with any concerns.


Current Version
Previous Version:    01  02  03  04  05  06  07  08  09  10  11  12  13  14  15  16  17  18  19  20  21  22  23  24  25  26  27  28  29  30  
   31  32  33  34  35  36  37  38  39  40  41  42  43  44  45  46  47  48  49  50  51  52  53  54  55  56  57  58  59  60  
[Printable]
899
ASUS44 KSJT 270158
RWRSJT
WEST CENTRAL TEXAS REGIONAL WEATHER ROUNDUP
NATIONAL WEATHER SERVICE SAN ANGELO TX
800 PM CST WED NOV 26 2014

NOTE: "FAIR" INDICATES FEW OR NO CLOUDS BELOW 12,000 FEET WITH NO
SIGNIFICANT WEATHER AND/OR OBSTRUCTIONS TO VISIBILITY.

TXZ049-054-064>066-071>073-076>078-098-099-113-114-127-128-139-140-
154-155-168>170-270300
...LOCATIONS ACROSS WEST CENTRAL TEXAS...

CITY           SKY/WX    TMP DP  RH WIND       PRES   REMARKS
SAN ANGELO     CLEAR     49  32  52 E7        30.32R
ABILENE        CLEAR     49  35  58 E5        30.34R
DYESS AFB      NOT AVBL
JUNCTION       CLEAR     56  29  35 NE7       30.30R
SWEETWATER     NOT AVBL
BROWNWOOD      NOT AVBL
COLEMAN        NOT AVBL
SONORA         NOT AVBL
OZONA          NOT AVBL
BRADY          NOT AVBL
$$

TEXAS PANHANDLE/OKLAHOMA PANHANDLE

CITY           SKY/WX    TMP DP  RH WIND       PRES   REMARKS
AMARILLO       CLEAR     40  23  50 E6        30.35R WCI  36
BORGER         PTCLDY    42  21  43 NE7       30.35R WCI  38
CANADIAN       NOT AVBL
DALHART        PTCLDY    33  21  61 E7        30.34R WCI  27
DUMAS          NOT AVBL
GUYMON         NOT AVBL
HEREFORD       NOT AVBL
PAMPA          NOT AVBL
PERRYTON       NOT AVBL
$$

SOUTHERN PANHANDLE/SOUTH PLAINS/ROLLING PLAINS

CITY           SKY/WX    TMP DP  RH WIND       PRES   REMARKS
LUBBOCK        CLEAR     39  26  59 E7        30.32R WCI  34
SNYDER         NOT AVBL
CHILDRESS      CLEAR     49  25  39 NE6       30.35R
SEMINOLE       NOT AVBL
$$

PERMIAN BASIN

CITY           SKY/WX    TMP DP  RH WIND       PRES   REMARKS
MIDLAND        NOT AVBL
ODESSA         NOT AVBL
WINK           CLEAR     52  25  35 E8        30.27R
$$

FAR WEST/SOUTHWEST MOUNTAINS/TRANS PECOS

CITY           SKY/WX    TMP DP  RH WIND       PRES   REMARKS
ALPINE         NOT AVBL
DRYDEN           N/A     57  24  28 N9        30.26R
EL PASO        CLEAR     54  21  27 SW3       30.28R
FORT STOCKTON  CLEAR     53  23  31 SE8       30.29R
GUADALUPE PASS NOT AVBL
MARFA          NOT AVBL
PECOS          NOT AVBL
$$

DALLAS/FORT WORTH METROPLEX

CITY           SKY/WX    TMP DP  RH WIND       PRES   REMARKS
DFW AIRPORT    CLEAR     54  35  48 NW10      30.30R
FTW MEACHAM    CLEAR     53  36  52 NW6       30.30R
DAL-EXECUTIVE  NOT AVBL
GRAND PRAIRIE  NOT AVBL
ADDISON        CLEAR     54  34  47 NW6       30.30R
MESQUITE       NOT AVBL
LANCASTER      NOT AVBL
$$

NORTH CENTRAL TEXAS

CITY           SKY/WX    TMP DP  RH WIND       PRES   REMARKS
SHRMAN/DENISON NOT AVBL
GAINESVILLE    NOT AVBL
BRIDGEPORT     NOT AVBL
DENTON         CLEAR     48  35  60 CALM      30.31R
WAXAHACHIE     NOT AVBL
GRANBURY       NOT AVBL
$$

WESTERN NORTH TEXAS

CITY           SKY/WX    TMP DP  RH WIND       PRES   REMARKS
WICHITA FALLS  CLEAR     46  33  60 NW6       30.33R
VERNON         NOT AVBL
BRECKENRIDGE   NOT AVBL
COMANCHE       NOT AVBL
$$

CENTRAL AND SOUTH CENTRAL TEXAS

CITY           SKY/WX    TMP DP  RH WIND       PRES   REMARKS
AUSTIN/BERGSTM CLEAR     57  36  45 NE7       30.27R
WACO           CLEAR     53  35  50 NW7       30.30R
HILLSBORO      NOT AVBL
TEMPLE         NOT AVBL
KILLEEN-GRAY   NOT AVBL
FORT HOOD      CLEAR     58  31  35 N3        30.29R
GEORGETOWN     CLEAR     54  34  47 N6        30.28R
LAGO VISTA     NOT AVBL
SAN MARCOS     NOT AVBL
NEW BRAUNFELS  CLEAR     55  39  54 N6        30.24R
RANDOLPH AFB   NOT AVBL
SAN ANTONIO    CLEAR     57  40  52 NW5       30.25R
STINSON        NOT AVBL
PLEASANTON     NOT AVBL
LA GRANGE      NOT AVBL
GIDDINGS       NOT AVBL
$$

EAST TEXAS

CITY           SKY/WX    TMP DP  RH WIND       PRES   REMARKS
PARIS          NOT AVBL
CLARKSVILLE    NOT AVBL
TYLER          NOT AVBL
LONGVIEW       CLEAR     51  36  56 NW5       30.25R
PALESTINE      NOT AVBL
NACOGDOCHES    NOT AVBL
$$

TEXAS HILL COUNTRY AND EDWARDS PLATEAU

CITY           SKY/WX    TMP DP  RH WIND       PRES   REMARKS
LLANO          NOT AVBL
HORSESHOE BAY  NOT AVBL
KERRVILLE      NOT AVBL
FREDERICKSBRG  NOT AVBL
ROCKSPRINGS    NOT AVBL
HONDO          CLEAR     49  30  48 N3        30.26R
UVALDE         NOT AVBL
DEL RIO        CLEAR     58  33  39 CALM      30.23R
$$

SOUTHEAST TEXAS

CITY           SKY/WX    TMP DP  RH WIND       PRES   REMARKS
COLLEGE STN    CLEAR     56  35  45 N6        30.27R
CALDWELL       NOT AVBL
CROCKETT       NOT AVBL
BRENHAM        NOT AVBL
HUNTSVILLE     NOT AVBL
CONROE         CLEAR     47  43  86 CALM      30.26R
HOUSTON BUSH   CLEAR     54  43  66 S3        30.26R
HOUSTON HOBBY  CLEAR     57  42  57 SW6       30.26R
PERLAND        NOT AVBL
WHARTON        NOT AVBL
$$

THE UPPER TEXAS COAST

CITY           SKY/WX    TMP DP  RH WIND       PRES   REMARKS
ORANGE         NOT AVBL
PORT ARTHUR    CLEAR     55  46  71 SW7       30.24R
GALVESTON      CLEAR     58  48  69 SW7       30.28R
ANGLETON       CLEAR     50  44  80 CALM      30.27R
BAY CITY       NOT AVBL
$$

TEXAS COASTAL BEND, RIO GRANDE PLAINS DEEP SOUTH TEXAS

CITY           SKY/WX    TMP DP  RH WIND       PRES   REMARKS
VICTORIA       CLEAR     55  45  68 S6        30.26R
BEEVILLE       NOT AVBL
ROCKPORT       NOT AVBL
PORT ARANSAS   NOT AVBL
PORT LAVACA    NOT AVBL
CORPUS CHRISTI CLEAR     58  51  78 S8        30.26R
KINGSVILLE NAS NOT AVBL
COTULLA        CLEAR     59  31  34 S5        30.24R
LAREDO         NOT AVBL
BROWNSVILLE    CLEAR     56  50  80 SE5       30.29R
PORT ISABEL    NOT AVBL
HEBBRONVILLE   NOT AVBL
MCALLEN        NOT AVBL
WESLACO        NOT AVBL
FALFURRIAS     NOT AVBL
EDINBURG       NOT AVBL
$$




U.S. Dept. of Commerce
NOAA National Weather Service
1325 East West Highway
Silver Spring, MD 20910
E-mail: w-nws.webmaster@noaa.gov
Page last modified: May 16, 2007
NATIONAL WEATHER SERVICE: for Safety, for Work, for Fun - FOR LIFE